This is the latest recevied weather packets stored in our database for station/object KW4UJ. If no packets are shown the sender has not sent any weather packets the latest 10 day(s).
| Time | Temp. | Humidity | Pressure | Rain* | Wind** | Luminosity | Snow |
|---|---|---|---|---|---|---|---|
| 1777027791 | 14.44° C | 85% | 1009.5 hPa | 0 mm | - | 21 W/m² | - |
| 1777027487 | 14.44° C | 84% | 1009.4 hPa | 0 mm | - | 17 W/m² | - |
| 1777027184 | 15° C | 84% | 1009.5 hPa | 0 mm | - | 12 W/m² | - |
| 1777026881 | 15° C | 83% | 1009.1 hPa | 0 mm | - | 8 W/m² | - |
| 1777026577 | 15° C | 82% | 1009.2 hPa | 0 mm | - | 5 W/m² | - |
| 1777026272 | 15° C | 82% | 1009.4 hPa | 0 mm | - | 3 W/m² | - |
| 1777025970 | 15° C | 81% | 1009.2 hPa | 0 mm | - | 2 W/m² | - |
| 1777025666 | 15° C | 81% | 1009.1 hPa | 0 mm | - | 1 W/m² | - |
| 1777025362 | 15° C | 81% | 1009.3 hPa | 0 mm | - | 0 W/m² | - |
| 1777025058 | 14.44° C | 83% | 1009.1 hPa | 0 mm | - | 0 W/m² | - |
| 1777024757 | 14.44° C | 82% | 1009.2 hPa | 0 mm | - | 0 W/m² | - |
| 1777024454 | 15° C | 82% | 1009 hPa | 0 mm | - | 0 W/m² | - |
| 1777024151 | 15° C | 81% | 1009.2 hPa | 0 mm | - | 0 W/m² | - |
| 1777023847 | 15° C | 81% | 1009 hPa | 0 mm | - | 0 W/m² | - |
| 1777023543 | 15° C | 81% | 1008.9 hPa | 0 mm | - | 0 W/m² | - |
| 1777023239 | 15° C | 81% | 1008.9 hPa | 0 mm | - | 0 W/m² | - |
| 1777022936 | 15° C | 81% | 1009 hPa | 0 mm | - | 0 W/m² | - |
| 1777022631 | 15° C | 81% | 1009.1 hPa | 0 mm | - | 0 W/m² | - |
| 1777022327 | 15° C | 81% | 1009.1 hPa | 0 mm | - | 0 W/m² | - |
| 1777022023 | 15° C | 82% | 1009.1 hPa | 0 mm | - | 0 W/m² | - |
| 1777021720 | 15° C | 82% | 1009 hPa | 0 mm | - | 0 W/m² | - |
| 1777021416 | 15° C | 82% | 1009.2 hPa | 0 mm | - | 0 W/m² | - |
| 1777021113 | 15° C | 83% | 1009 hPa | 0 mm | - | 0 W/m² | - |
| 1777020808 | 15° C | 84% | 1009.1 hPa | 0 mm | - | 0 W/m² | - |
| 1777020504 | 15° C | 84% | 1009.1 hPa | 0 mm | - | 0 W/m² | - |
* Rain latest hour (hover to see other rain measurements)
** Current wind speed in m/s (hover to see current wind gust speed)